Location: *
(45.8589°N, 4.7139°E)
Time: 21:23:19
(UTC+00:00)

STARLINK-1105 - Pass Details

Date: 09 April 2020
Orbit: 376 x 383 km, 53.0° (Epoch: 05 June)

Event Time Altitude Azimuth Distance (km) Brightness Sun altitude
Rises 19:56:01 0° 300° (WNW) 2,258 8.6 -16.2°
Reaches altitude 10° 19:58:05 10° 298° (WNW) 1,403 7.1 -16.6°
Maximum altitude 20:01:12 69° 214° (SW) 412 2.9 -17.0°
Enters shadow 20:01:45 53° 155° (SSE) 475 2.9 -17.1°
